Погода в Гастеллове

Россия / Калининградская область     55°00′42″N   21°33′13″E
темп.,
°C
ветер,
м/с
пор.,
м/с
влажн.,
%
обл.,
%
осадки,
мм/ч
давл.,
гПа
погр.,
м
7 мая, пт
пт723:00+2ююз37935 0.1 1004122
02:00+2юз310920 0.1 1004235
05:00+1ююз3794100 0.0 1004122
08:00+6юз2476100 0.0 1005297
11:00+10з3457100 0.1 10051358
14:00+10зсз4457100 0.4 10051206
17:00+9сз4463100 0.0 1005774
20:00+4сз2387100 0.0 100642
8 мая, сб
сб823:00+3зсз2494100 0.0 100773
02:00+2ссз3696100 0.0 1009152
05:00+4ссз357392 0.0 1011597
08:00+6зсз45705 0.0 1012903
11:00+9з575787 0.0 10131334
14:00+7зсз59858 1.3 10141016
17:00+9зсз58749 0.6 1015990
20:00+5з379514 0.6 1017252
9 мая, вс
вс923:00+3юз23975 0.0 101844
02:00+1ююз359663 0.0 101991
05:000ю369554 0.0 101998
08:00+7ю4874100 0.0 1020329
11:00+13ю695793 0.0 10191104
14:00+16ю71053100 0.0 10171638
17:00+15ю61165100 0.0 1017995
20:00+13ю4127469 0.0 1017479
10 мая, пн
пн1023:00+11ю41383100 0.0 1018353
02:00+10ю41379100 0.0 1018323
05:00+8ююв41386100 0.0 1018268
08:00+13ююв5137437 0.0 1019467
11:00+18ююв7105790 0.0 1019886
14:00+20ююв7115877 0.0 10181145
17:00+19ююв71364100 0.0 10171139
20:00+16ююв513765 0.0 1018577
11 мая, вт
вт1123:00+15ююв6157768 0.0 1018574
02:00+13юв5148273 0.0 1018447
05:00+11юв514820 0.0 1017395
08:00+15юв614731 0.0 1017575
11:00+19ююв712610 0.0 1017804
14:00+21ююв813600 0.0 10161109
17:00+20ююв814625 0.0 10151042
20:00+17юв614700 0.0 1015671